Location: Brachbach
(49.1847°N, 9.7240°E)
Time: 07:00:08
(UTC+00:00)

CUBEBUG 2 - Visible Passes

Search period start: 11 March 2026 00:00
Search period end: 21 March 2026 00:00
Orbit: 548 x 629 km, 97.9° (Epoch: 10 March)

Date Brightness Start Highest point End Pass type
(mag) Time Alt. Az. Time Alt. Az. Time Alt. Az.
11 Mar ? 01:25:41 10° NNE 01:26:04 12° NNE 01:26:04 12° NNE visible
11 Mar ? 03:01:45 10° NNW 03:02:35 14° NNW 03:02:35 14° NNW visible
12 Mar ? 01:33:12 10° NNE 01:33:52 14° NNE 01:33:52 14° NNE visible
12 Mar ? 03:09:32 10° NNW 03:10:23 14° NNW 03:10:23 14° NNW visible
13 Mar ? 01:40:44 10° NNE 01:41:40 16° NNE 01:41:40 16° NNE visible
13 Mar ? 03:17:19 10° NNW 03:18:11 13° NNW 03:18:11 13° NNW visible
14 Mar ? 01:48:17 10° NNE 01:49:27 18° NNE 01:49:27 18° NNE visible
14 Mar ? 03:25:10 10° NNW 03:25:58 12° NW 03:25:58 12° NW visible
15 Mar ? 01:55:49 10° NNE 01:57:13 20° NNE 01:57:13 20° NNE visible
15 Mar ? 03:33:06 10° NNW 03:33:44 11° NW 03:33:44 11° NW visible
16 Mar ? 02:03:22 10° N 02:04:58 22° N 02:04:58 22° N visible
16 Mar ? 03:41:13 10° NW 03:41:29 10° NW 03:41:29 10° NW visible
17 Mar ? 02:10:55 10° N 02:12:43 24° N 02:12:43 24° N visible
18 Mar ? 00:43:48 10° NE 00:43:56 11° NE 00:43:56 11° NE visible
18 Mar ? 02:18:28 10° N 02:20:27 25° N 02:20:27 25° N visible
19 Mar ? 00:51:05 10° NE 00:51:39 13° NE 00:51:39 13° NE visible
19 Mar ? 02:26:02 10° N 02:28:10 26° NNW 02:28:10 26° NNW visible
20 Mar ? 00:58:23 10° NE 00:59:22 15° NE 00:59:22 15° NE visible
20 Mar ? 02:33:35 10° N 02:35:52 26° NNW 02:35:52 26° NNW visible
